QPF
0.00 0.00 0.00 0.00 0.00 0.00 0.00 0.00 0.00 0.00 0.00 0.00 0.00 0.00 0.00 0.00 0.00 0.00 0.00 0.00 0.00 0.00 0.00 0.00 0.00 0.00 0.00 0.00 0.00 0.00 0.00 0.00 0.00 0.00 0.00 0.00 0.00 0.00 0.02 0.00 0.00 0.00 0.00 0.00
0.00 0.01 0.00 0.00 0.00 0.00 0.00 0.00 0.00 0.00 0.00 0.00 0.00 0.00 0.00 0.00 0.00 0.00 0.00 0.00 0.00 0.00 0.00 0.00 0.00 0.00 0.00 0.00 0.00 0.00 0.00 0.00 0.00 0.00 0.00 0.00 0.00 0.00 0.00 0.01 0.00 0.00 0.00 0.00
0.00 0.00 0.00 0.00 0.00 0.00 0.00 0.00 0.00 0.00 0.00 0.00 0.00 0.00 0.00 0.00 0.00 0.00 0.00 0.00 0.00 0.00 0.00 0.00 0.00 0.00 0.00 0.00 0.00 0.00 0.00 0.00 0.00 0.00 0.00 0.00 0.00 0.00 0.00 0.00 0.00 0.00 0.00 0.00
0.00 0.00 0.00 0.00 0.00 0.00 0.00 0.00 0.00 0.00 0.00 0.00 0.00 0.00 0.00 0.00 0.00 0.00 0.00 0.00 0.00 0.00 0.00 0.00 0.00 0.00 0.00 0.00 0.00 0.00 0.00 0.00 0.00 0.00 0.00 0.00 0.00 0.00 0.00 0.00 0.00 0.00 0.00 0.00
0.00 0.01 0.02 0.01 0.00 0.00 0.00 0.00 0.00 0.00 0.00 0.00 0.00 0.00 0.00 0.00 0.00 0.00 0.00 0.00 0.00 0.00 0.00 0.00 0.00 0.00 0.00 0.00 0.00 0.00 0.00 0.00 0.00 0.00 0.00 0.00 0.00 0.00 0.00 0.00 0.00 0.00 0.00 0.00
0.00 0.01 0.02 0.01 0.00 0.00 0.00 0.00 0.01 0.02 0.01 0.00 0.00 0.00 0.00 0.00 0.00 0.00 0.00 0.00 0.00 0.00 0.00 0.00 0.00 0.00 0.00 0.00 0.00 0.00 0.00 0.00 0.00 0.00 0.00 0.00 0.00 0.00 0.00 0.00 0.00 0.00 0.00 0.00
0.00 0.02 0.02 0.02 0.01 0.00 0.00 0.00 0.04 0.02 0.01 0.00 0.00 0.00 0.00 0.00 0.00 0.00 0.00 0.00 0.00 0.00 0.00 0.00 0.00 0.00 0.00 0.00 0.00 0.00 0.00 0.00 0.00 0.00 0.00 0.00 0.00 0.00 0.00 0.00 0.00 0.00 0.00 0.00
0.00 0.00 0.00 0.01 0.02 0.00 0.00 0.00 0.01 0.00 0.00 0.00 0.00 0.00 0.00 0.00 0.00 0.00 0.00 0.00 0.00 0.00 0.00 0.00 0.00 0.00 0.00 0.00 0.00 0.00 0.00 0.00 0.00 0.00 0.00 0.00 0.00 0.00 0.00 0.00 0.01 0.00 0.00 0.00
0.04 0.02 0.00 0.01 0.02 0.01 0.00 0.00 0.01 0.01 0.00 0.01 0.00 0.00 0.00 0.00 0.00 0.00 0.00 0.00 0.00 0.00 0.00 0.00 0.00 0.00 0.00 0.00 0.00 0.00 0.00 0.00 0.00 0.00 0.00 0.00 0.00 0.00 0.00 0.00 0.01 0.01 0.00 0.00
0.05 0.03 0.01 0.02 0.03 0.00 0.00 0.00 0.00 0.01 0.01 0.02 0.02 0.00 0.00 0.00 0.00 0.02 0.01 0.02 0.03 0.00 0.00 0.00 0.00 0.00 0.00 0.00 0.00 0.00 0.00 0.00 0.00 0.00 0.00 0.00 0.00 0.00 0.00 0.00 0.01 0.01 0.00 0.00
0.02 0.04 0.01 0.02 0.02 0.01 0.00 0.00 0.00 0.00 0.00 0.00 0.00 0.00 0.00 0.00 0.00 0.01 0.01 0.00 0.01 0.01 0.00 0.00 0.00 0.00 0.00 0.00 0.00 0.00 0.00 0.00 0.00 0.00 0.00 0.00 0.00 0.00 0.00 0.00 0.01 0.01 0.00 0.00
0.00 0.00 0.00 0.01 0.01 0.01 0.01 0.01 0.00 0.00 0.00 0.00 0.00 0.00 0.00 0.01 0.03 0.02 0.02 0.01 0.01 0.00 0.00 0.00 0.00 0.00 0.00 0.00 0.00 0.00 0.00 0.00 0.00 0.00 0.00 0.00 0.00 0.00 0.00 0.00 0.01 0.01 0.01 0.00
0.01 0.01 0.00 0.01 0.00 0.00 0.01 0.00 0.00 0.00 0.00 0.00 0.00 0.01 0.01 0.01 0.03 0.06 0.02 0.00 0.01 0.02 0.01 0.00 0.00 0.00 0.00 0.00 0.00 0.00 0.00 0.00 0.00 0.00 0.00 0.00 0.00 0.00 0.00 0.00 0.01 0.01 0.00 0.00
0.01 0.03 0.01 0.01 0.01 0.01 0.01 0.00 0.00 0.00 0.00 0.00 0.00 0.03 0.02 0.01 0.01 0.01 0.01 0.01 0.01 0.00 0.00 0.00 0.00 0.00 0.00 0.00 0.00 0.00 0.00 0.00 0.00 0.00 0.00 0.00 0.00 0.01 0.01 0.01 0.02 0.01 0.00 0.00
0.00 0.01 0.01 0.00 0.00 0.00 0.01 0.01 0.00 0.00 0.00 0.00 0.00 0.02 0.03 0.00 0.00 0.01 0.01 0.00 0.00 0.00 0.00 0.00 0.00 0.00 0.00 0.00 0.00 0.00 0.00 0.00 0.00 0.00 0.00 0.00 0.00 0.00 0.01 0.01 0.01 0.01 0.00 0.00
0.00 0.00 0.00 0.00 0.00 0.00 0.00 0.00 0.00 0.00 0.00 0.01 0.00 0.03 0.01 0.00 0.00 0.00 0.00 0.00 0.00 0.00 0.00 0.00 0.00 0.00 0.00 0.00 0.00 0.00 0.00 0.00 0.00 0.00 0.00 0.00 0.00 0.00 0.00 0.00 0.00 0.01 0.01 0.00
0.00 0.01 0.00 0.01 0.00 0.00 0.03 0.04 0.03 0.01 0.03 0.03 0.03 0.04 0.01 0.00 0.00 0.00 0.00 0.00 0.00 0.00 0.00 0.00 0.00 0.00 0.00 0.00 0.00 0.00 0.00 0.00 0.00 0.00 0.00 0.00 0.00 0.00 0.01 0.00 0.01 0.02 0.03 0.01
0.00 0.00 0.00 0.00 0.00 0.01 0.03 0.01 0.02 0.04 0.03 0.04 0.04 0.03 0.01 0.00 0.00 0.00 0.00 0.00 0.00 0.00 0.00 0.00 0.00 0.00 0.00 0.00 0.00 0.00 0.00 0.00 0.00 0.00 0.00 0.00 0.00 0.00 0.00 0.01 0.02 0.04 0.04 0.03
0.01 0.01 0.01 0.01 0.00 0.02 0.01 0.00 0.00 0.01 0.01 0.00 0.00 0.00 0.00 0.00 0.00 0.00 0.00 0.00 0.00 0.00 0.00 0.00 0.00 0.00 0.00 0.00 0.00 0.00 0.00 0.00 0.00 0.00 0.00 0.00 0.00 0.00 0.01 0.02 0.06 0.07 0.05 0.03
0.03 0.03 0.02 0.00 0.01 0.01 0.00 0.00 0.00 0.00 0.01 0.00 0.00 0.00 0.00 0.00 0.00 0.00 0.00 0.00 0.00 0.00 0.00 0.00 0.00 0.00 0.00 0.00 0.00 0.00 0.00 0.00 0.00 0.00 0.00 0.00 0.00 0.00 0.00 0.02 0.04 0.06 0.03 0.02
0.01 0.02 0.02 0.01 0.02 0.02 0.00 0.00 0.00 0.00 0.00 0.00 0.00 0.00 0.00 0.00 0.00 0.00 0.00 0.00 0.00 0.00 0.00 0.00 0.00 0.00 0.00 0.00 0.00 0.00 0.00 0.00 0.00 0.00 0.00 0.00 0.00 0.00 0.00 0.01 0.02 0.03 0.02 0.01
0.01 0.00 0.00 0.00 0.02 0.01 0.00 0.00 0.00 0.00 0.01 0.01 0.00 0.00 0.00 0.00 0.00 0.00 0.00 0.00 0.00 0.00 0.00 0.00 0.00 0.00 0.00 0.00 0.00 0.00 0.00 0.00 0.00 0.00 0.00 0.00 0.00 0.00 0.00 0.00 0.00 0.00 0.00 0.00
0.02 0.01 0.01 0.00 0.00 0.00 0.00 0.00 0.00 0.00 0.00 0.00 0.00 0.00 0.00 0.00 0.00 0.00 0.00 0.00 0.00 0.00 0.00 0.00 0.00 0.00 0.00 0.00 0.00 0.00 0.00 0.00 0.00 0.00 0.00 0.00 0.00 0.00 0.00 0.00 0.00 0.00 0.00 0.00
0.04 0.01 0.00 0.00 0.00 0.00 0.00 0.00 0.00 0.00 0.00 0.00 0.00 0.00 0.00 0.00 0.00 0.00 0.00 0.00 0.00 0.00 0.00 0.00 0.00 0.00 0.00 0.00 0.00 0.00 0.00 0.00 0.00 0.00 0.00 0.00 0.00 0.00 0.00 0.00 0.00 0.00 0.00 0.00
0.00 0.00 0.00 0.00 0.00 0.00 0.00 0.00 0.00 0.00 0.00 0.00 0.00 0.00 0.00 0.00 0.00 0.00 0.00 0.00 0.00 0.00 0.00 0.00 0.00 0.00 0.00 0.00 0.00 0.00 0.00 0.00 0.00 0.00 0.00 0.00 0.00 0.00 0.00 0.00 0.00 0.00 0.00 0.00
0.00 0.00 0.00 0.00 0.00 0.00 0.00 0.00 0.00 0.00 0.00 0.00 0.00 0.00 0.00 0.00 0.00 0.00 0.00 0.00 0.00 0.00 0.00 0.00 0.00 0.00 0.00 0.00 0.00 0.00 0.00 0.00 0.00 0.00 0.00 0.00 0.00 0.00 0.00 0.00 0.00 0.00 0.00 0.00
MSLP
1009.95 1010.25 1009.45 1008.92 1008.43 1007.97 1007.01 1005.72 1003.91 1002.38 1001.37 1000.78 999.96 999.39 999.52 999.39 999.60 999.28 999.18 999.45 999.26 999.07 999.13 999.27 999.76 1000.02 1000.50 1000.95 1001.26 1001.61 1002.49 1003.24 1004.17 1005.20 1005.88 1006.56 1006.73 1007.13 1007.78 1008.35 1008.45 1008.93 1009.50 1009.97
1009.59 1008.70 1008.74 1008.86 1008.52 1007.90 1006.88 1005.68 1004.00 1002.31 1001.40 1000.73 1000.11 999.97 999.29 999.11 999.20 998.34 998.61 998.66 998.51 998.55 998.59 998.55 999.08 999.68 1000.48 1001.27 1001.63 1001.97 1002.74 1003.57 1004.18 1004.79 1005.43 1005.84 1006.28 1006.60 1007.04 1007.70 1008.15 1008.35 1008.96 1009.48
1009.30 1008.50 1009.02 1008.58 1008.03 1007.41 1005.59 1005.07 1004.32 1003.03 1002.37 1001.58 1001.35 1000.64 999.96 998.78 998.71 998.25 997.63 997.75 997.94 997.93 998.25 998.44 999.29 999.59 1000.42 1001.26 1001.60 1002.12 1002.98 1003.78 1004.14 1004.45 1005.12 1005.89 1006.33 1006.81 1007.28 1007.58 1007.85 1008.30 1008.54 1009.14
1009.26 1008.16 1008.57 1007.85 1006.40 1006.32 1004.32 1004.55 1004.02 1003.09 1003.24 1003.05 1002.72 1002.17 1000.42 999.66 998.89 998.43 997.94 997.73 997.90 997.74 997.90 998.35 999.38 1000.07 1000.18 1001.04 1001.43 1002.06 1002.64 1003.25 1003.89 1004.61 1005.20 1005.17 1005.74 1006.45 1006.68 1007.03 1007.35 1007.79 1008.27 1008.75
1007.88 1007.22 1006.79 1005.38 1004.32 1004.29 1003.05 1003.42 1003.50 1002.71 1003.05 1003.65 1003.89 1004.02 1001.00 999.91 999.09 998.34 998.09 997.96 997.80 997.82 998.02 998.48 999.44 1000.05 1001.01 1001.57 1002.04 1002.39 1002.69 1003.00 1003.25 1003.66 1004.60 1005.38 1005.42 1005.64 1006.14 1006.75 1007.28 1007.52 1007.71 1008.21
1006.90 1005.37 1005.81 1004.37 1003.62 1003.06 1002.06 1003.04 1003.81 1002.57 1003.28 1004.46 1003.73 1003.42 1000.87 999.84 998.61 998.18 997.85 997.63 997.63 998.11 998.73 999.40 1000.34 1001.67 1002.61 1003.04 1003.38 1003.73 1004.05 1004.26 1004.52 1004.66 1004.94 1005.16 1005.58 1005.54 1006.05 1006.58 1007.06 1007.44 1007.60 1007.92
1005.48 1004.21 1003.43 1002.45 1002.08 1001.07 1001.49 1002.73 1003.53 1003.75 1004.25 1004.09 1002.69 1002.85 1000.13 998.88 998.00 997.79 997.63 997.70 997.89 998.14 999.61 1000.66 1001.74 1003.07 1003.62 1004.16 1004.61 1004.70 1004.97 1005.12 1005.24 1005.57 1005.64 1005.82 1005.72 1005.27 1005.45 1005.74 1006.26 1006.75 1006.93 1007.17
1005.94 1003.54 1003.46 1001.56 1001.78 1000.39 1000.67 1001.62 1002.85 1003.40 1003.66 1003.41 1002.59 1001.33 999.03 997.97 997.36 997.57 997.56 998.45 998.76 999.17 1000.40 1001.80 1002.76 1003.34 1003.79 1004.73 1005.32 1005.70 1005.90 1006.08 1006.30 1006.45 1006.19 1005.99 1005.75 1005.37 1004.71 1005.04 1005.37 1005.83 1006.03 1006.33
1006.76 1004.76 1003.04 1002.18 1001.55 1001.14 1000.02 1001.05 1001.53 1002.27 1002.61 1002.56 1001.72 1000.36 998.63 997.51 998.09 998.01 997.64 998.79 1000.15 1000.87 1001.71 1002.68 1003.35 1003.74 1004.28 1005.25 1005.80 1006.08 1006.24 1006.75 1007.19 1007.39 1006.98 1006.36 1005.98 1005.37 1004.43 1004.19 1004.38 1004.86 1005.13 1005.52
1007.27 1005.64 1004.69 1003.14 1001.56 999.47 999.17 1000.21 1001.56 1002.66 1002.99 1002.63 1001.71 1000.52 999.65 999.11 999.07 1000.14 1000.38 1001.17 1002.45 1002.50 1002.96 1004.08 1004.73 1005.03 1005.57 1005.84 1006.38 1006.83 1007.59 1008.02 1008.01 1007.89 1007.40 1006.70 1006.01 1005.40 1004.05 1003.60 1003.78 1003.99 1004.50 1005.01
1007.63 1006.87 1005.02 1003.88 1002.64 1001.16 1000.57 1000.68 1001.63 1003.41 1002.86 1002.37 1002.40 1002.08 1000.98 1000.49 1000.19 1001.59 1002.32 1003.31 1005.39 1005.16 1005.27 1005.52 1006.37 1006.87 1007.16 1007.53 1007.82 1008.49 1008.81 1008.76 1008.36 1008.05 1007.36 1006.63 1005.53 1004.52 1003.40 1003.10 1003.25 1003.47 1003.97 1004.41
1008.21 1007.70 1005.94 1004.20 1003.04 1002.08 1001.45 1001.32 1001.53 1002.59 1002.66 1002.03 1002.43 1003.68 1002.86 1002.41 1003.06 1002.62 1003.84 1005.05 1006.71 1006.96 1006.72 1007.25 1008.09 1008.78 1009.06 1009.32 1009.59 1009.72 1009.72 1009.35 1008.93 1008.41 1007.42 1006.28 1005.00 1002.84 1002.36 1002.59 1002.71 1002.99 1003.39 1003.93
1008.56 1007.72 1006.79 1004.68 1003.06 1002.87 1002.97 1002.17 1001.59 1001.67 1002.09 1002.48 1002.83 1003.90 1004.06 1004.18 1004.88 1005.80 1006.18 1007.03 1008.10 1008.21 1008.47 1009.41 1009.09 1009.77 1010.43 1010.07 1009.78 1009.54 1009.61 1009.29 1009.00 1008.42 1007.48 1006.17 1004.73 1002.90 1002.20 1002.17 1002.28 1002.49 1002.91 1003.47
1008.87 1008.54 1008.52 1008.29 1007.38 1006.96 1005.04 1003.33 1002.14 1001.57 1002.28 1002.50 1003.48 1004.45 1005.65 1005.90 1007.02 1007.04 1007.67 1008.50 1009.22 1009.10 1009.58 1010.21 1010.73 1011.41 1011.22 1010.86 1010.87 1010.50 1010.08 1009.31 1008.83 1008.27 1007.50 1006.18 1004.74 1002.99 1002.30 1002.16 1001.90 1002.16 1002.32 1003.17
1009.31 1009.18 1008.74 1007.99 1007.08 1006.68 1006.05 1004.39 1003.68 1002.84 1002.73 1002.97 1004.22 1005.32 1006.77 1007.83 1008.03 1009.01 1009.48 1010.04 1010.46 1010.93 1011.49 1011.80 1012.09 1011.96 1011.74 1011.56 1011.36 1010.78 1010.13 1009.40 1008.85 1008.00 1007.07 1005.83 1004.24 1002.72 1002.06 1001.85 1001.85 1001.94 1002.12 1002.37
1009.73 1009.53 1008.98 1007.93 1006.37 1005.84 1005.70 1005.17 1004.51 1004.22 1004.29 1004.84 1005.46 1006.99 1007.84 1009.06 1009.64 1010.33 1010.05 1011.03 1011.45 1011.55 1011.79 1012.43 1013.10 1013.11 1013.25 1013.07 1012.15 1011.21 1010.99 1010.07 1008.87 1007.80 1006.80 1005.43 1003.48 1002.11 1001.57 1001.58 1001.61 1001.76 1001.70 1001.89
1010.45 1009.88 1009.49 1008.20 1006.58 1006.57 1006.85 1006.56 1006.18 1007.28 1007.01 1005.86 1006.92 1008.49 1009.55 1010.51 1011.07 1011.64 1011.98 1012.41 1012.39 1013.35 1013.74 1014.15 1014.32 1014.20 1013.83 1013.25 1012.96 1012.44 1011.27 1010.23 1009.44 1008.52 1007.09 1005.54 1003.84 1001.33 1001.14 1001.05 1001.31 1001.53 1001.66 1001.78
1010.50 1010.27 1009.95 1009.17 1007.97 1007.75 1008.83 1008.20 1007.58 1007.92 1008.84 1009.13 1009.14 1009.97 1010.76 1011.78 1012.39 1013.14 1013.89 1014.35 1014.79 1014.99 1015.14 1015.22 1015.04 1014.81 1014.51 1014.08 1013.28 1012.67 1011.98 1011.00 1009.97 1008.92 1007.62 1006.05 1004.49 1002.46 1000.69 1000.68 1000.80 1001.36 1001.15 1002.41
1009.97 1010.44 1010.55 1010.43 1009.82 1009.29 1009.47 1009.71 1009.88 1009.64 1011.49 1011.89 1011.67 1011.93 1012.18 1012.79 1013.29 1014.58 1015.13 1015.52 1015.96 1016.24 1016.34 1016.12 1015.76 1015.43 1015.07 1014.52 1014.04 1013.36 1012.42 1011.50 1010.59 1009.41 1008.20 1006.59 1005.12 1003.32 1000.83 1000.41 1000.65 1001.13 1001.73 1002.50
1009.94 1010.25 1011.30 1011.38 1011.45 1011.82 1012.88 1011.94 1011.16 1011.02 1012.90 1013.63 1013.56 1013.61 1013.13 1013.24 1013.79 1015.64 1016.19 1016.61 1017.09 1017.24 1017.05 1016.65 1016.19 1016.14 1015.83 1015.42 1015.05 1014.21 1013.32 1012.46 1011.59 1010.56 1009.11 1007.39 1005.81 1004.34 1002.66 1000.95 1000.81 1001.45 1002.45 1003.76
1011.38 1011.50 1012.28 1012.44 1012.68 1013.62 1014.31 1013.01 1011.05 1012.34 1015.37 1014.83 1014.60 1014.67 1014.68 1014.60 1015.65 1016.44 1016.85 1017.26 1017.53 1017.51 1017.32 1017.25 1017.11 1017.09 1016.99 1016.56 1015.77 1014.87 1014.01 1013.33 1012.59 1011.23 1009.64 1008.09 1006.59 1005.12 1004.15 1002.80 1002.04 1002.53 1003.70 1005.01
1013.06 1013.07 1013.74 1013.83 1014.36 1015.35 1015.17 1013.96 1014.76 1016.04 1015.74 1015.53 1015.28 1015.29 1015.03 1015.54 1016.15 1016.89 1017.52 1017.92 1017.98 1017.98 1017.94 1017.98 1017.94 1017.89 1017.53 1016.96 1016.25 1015.45 1014.64 1013.99 1013.17 1011.28 1010.39 1009.28 1007.69 1006.27 1005.74 1004.80 1004.35 1004.38 1004.94 1005.80
1013.81 1014.18 1014.88 1015.88 1016.66 1017.19 1017.33 1017.53 1017.60 1017.20 1016.85 1016.52 1015.92 1015.64 1015.73 1016.12 1016.70 1017.49 1017.98 1018.32 1018.65 1018.85 1018.91 1018.98 1018.86 1018.50 1018.05 1017.48 1016.86 1016.16 1015.24 1014.28 1013.23 1012.29 1011.66 1010.84 1009.43 1007.65 1007.20 1006.66 1006.25 1006.25 1006.65 1007.42
1014.77 1014.78 1015.76 1016.79 1017.51 1017.84 1018.25 1018.64 1018.57 1018.41 1018.05 1017.57 1017.24 1016.86 1016.46 1016.84 1017.24 1017.79 1018.36 1018.71 1019.26 1019.54 1019.76 1019.81 1019.52 1019.06 1018.62 1018.15 1017.40 1016.61 1015.60 1014.81 1013.94 1012.98 1012.93 1012.31 1011.38 1009.95 1008.61 1008.15 1008.31 1007.92 1008.58 1009.10
1016.59 1016.46 1017.30 1017.95 1018.59 1019.04 1019.31 1019.63 1019.65 1019.37 1019.07 1018.52 1018.17 1018.09 1017.94 1017.80 1017.95 1018.41 1019.10 1019.60 1019.97 1020.29 1020.53 1020.55 1020.31 1019.92 1019.37 1018.63 1017.80 1016.77 1016.16 1015.78 1015.12 1014.48 1014.25 1013.67 1013.13 1012.29 1011.24 1010.49 1010.47 1010.39 1010.96 1010.35
1017.61 1018.22 1018.49 1018.96 1019.55 1019.71 1020.26 1020.52 1020.39 1020.14 1019.96 1019.59 1019.20 1018.96 1018.84 1018.87 1018.94 1019.41 1020.11 1020.59 1020.80 1021.06 1021.25 1021.28 1021.00 1020.49 1019.98 1019.19 1018.39 1017.64 1017.18 1016.74 1015.98 1015.40 1015.30 1015.05 1014.73 1014.35 1013.89 1013.10 1012.87 1012.30 1012.58 1012.72
Thickness
5514 5492 5496 5515 5521 5526 5541 5549 5571 5604 5636 5627 5635 5647 5657 5664 5674 5682 5691 5698 5703 5713 5723 5730 5730 5731 5729 5731 5731 5731 5732 5730 5724 5719 5713 5706 5707 5705 5701 5696 5695 5692 5687 5682
5489 5475 5493 5488 5492 5499 5513 5528 5549 5593 5621 5618 5628 5624 5653 5654 5660 5685 5686 5687 5699 5703 5709 5722 5725 5722 5721 5718 5718 5719 5720 5717 5714 5713 5713 5708 5702 5703 5704 5695 5691 5690 5685 5680
5476 5472 5470 5467 5465 5473 5500 5514 5535 5564 5586 5593 5599 5608 5624 5650 5655 5668 5687 5694 5696 5699 5701 5708 5707 5708 5708 5708 5709 5708 5708 5705 5704 5706 5704 5701 5696 5693 5692 5690 5686 5683 5680 5676
5460 5471 5455 5460 5471 5472 5490 5516 5538 5562 5567 5563 5584 5570 5608 5633 5640 5651 5665 5679 5685 5692 5699 5701 5694 5694 5703 5702 5703 5702 5703 5701 5695 5692 5690 5695 5692 5686 5687 5684 5682 5679 5676 5673
5478 5481 5464 5463 5484 5490 5501 5523 5538 5565 5564 5549 5556 5554 5594 5622 5624 5643 5655 5667 5679 5686 5689 5688 5684 5684 5685 5687 5688 5688 5695 5695 5693 5690 5684 5681 5685 5688 5684 5678 5674 5672 5671 5670
5484 5498 5484 5485 5495 5500 5520 5531 5536 5555 5545 5527 5557 5559 5586 5605 5630 5642 5655 5669 5676 5671 5668 5669 5664 5656 5658 5661 5664 5667 5671 5672 5672 5675 5675 5676 5674 5677 5674 5671 5666 5663 5663 5663
5510 5514 5514 5516 5517 5524 5529 5526 5519 5519 5522 5532 5573 5560 5598 5623 5638 5644 5651 5661 5661 5664 5655 5643 5639 5637 5639 5640 5641 5649 5653 5657 5656 5655 5658 5658 5662 5669 5669 5667 5663 5659 5659 5661
5495 5499 5507 5529 5523 5538 5535 5532 5514 5518 5526 5541 5569 5565 5598 5624 5635 5639 5644 5640 5641 5642 5634 5627 5627 5630 5630 5626 5626 5626 5632 5634 5637 5639 5643 5647 5650 5658 5666 5664 5662 5659 5659 5659
5486 5503 5516 5525 5525 5531 5544 5537 5554 5545 5557 5549 5567 5588 5611 5626 5618 5625 5637 5630 5620 5616 5613 5612 5617 5618 5616 5610 5610 5614 5615 5616 5617 5619 5626 5634 5639 5647 5657 5661 5660 5658 5659 5657
5493 5493 5507 5517 5532 5559 5561 5563 5536 5540 5538 5546 5560 5577 5585 5596 5606 5596 5591 5594 5592 5593 5597 5597 5596 5596 5599 5602 5600 5596 5591 5592 5598 5603 5610 5619 5630 5637 5650 5656 5656 5655 5655 5652
5490 5493 5509 5513 5526 5541 5547 5547 5548 5530 5548 5543 5543 5550 5578 5586 5598 5583 5578 5573 5562 5571 5577 5579 5578 5580 5581 5577 5577 5573 5571 5575 5583 5590 5598 5607 5620 5635 5643 5649 5650 5650 5649 5647
5486 5478 5495 5519 5530 5544 5546 5545 5551 5532 5539 5555 5547 5534 5561 5571 5568 5578 5572 5564 5553 5556 5565 5564 5560 5555 5553 5554 5554 5554 5555 5561 5567 5573 5586 5600 5613 5639 5642 5643 5645 5644 5643 5642
5481 5485 5484 5516 5531 5532 5527 5544 5559 5556 5553 5552 5543 5541 5554 5555 5552 5550 5548 5546 5541 5545 5544 5538 5542 5537 5534 5539 5543 5548 5548 5553 5557 5564 5574 5589 5604 5627 5634 5636 5636 5637 5637 5635
5487 5489 5473 5464 5471 5475 5501 5529 5549 5560 5544 5551 5547 5544 5532 5542 5536 5532 5533 5531 5527 5531 5528 5523 5521 5515 5519 5525 5526 5531 5536 5545 5551 5557 5564 5578 5592 5615 5621 5625 5628 5629 5631 5626
5479 5475 5488 5494 5502 5478 5490 5523 5532 5540 5550 5552 5544 5538 5526 5515 5517 5517 5516 5515 5513 5509 5506 5503 5502 5505 5510 5513 5515 5522 5528 5536 5541 5549 5558 5570 5586 5605 5612 5615 5617 5620 5622 5622
5473 5471 5482 5493 5516 5512 5518 5522 5531 5535 5538 5538 5536 5525 5519 5508 5504 5498 5505 5499 5498 5501 5502 5496 5491 5492 5490 5491 5501 5509 5510 5520 5532 5541 5550 5563 5584 5600 5605 5607 5608 5610 5613 5614
5458 5469 5471 5492 5515 5515 5507 5500 5513 5500 5507 5533 5522 5511 5500 5487 5484 5480 5483 5480 5486 5481 5479 5476 5475 5476 5478 5483 5484 5486 5498 5508 5514 5523 5536 5550 5564 5596 5598 5601 5601 5601 5601 5604
5456 5466 5472 5475 5497 5504 5483 5497 5503 5486 5477 5483 5499 5494 5481 5468 5467 5467 5462 5460 5460 5461 5460 5460 5462 5463 5464 5467 5472 5476 5481 5490 5498 5507 5519 5531 5544 5566 5589 5590 5590 5587 5594 5588
5470 5467 5452 5463 5474 5500 5485 5476 5475 5485 5463 5455 5470 5472 5467 5462 5459 5449 5450 5449 5444 5442 5442 5445 5449 5451 5452 5455 5457 5461 5468 5475 5482 5491 5499 5511 5523 5539 5570 5577 5578 5578 5579 5579
5476 5470 5455 5452 5472 5467 5445 5453 5470 5476 5449 5444 5446 5446 5460 5464 5466 5439 5437 5434 5429 5428 5430 5433 5438 5437 5438 5439 5439 5444 5449 5454 5459 5465 5477 5491 5505 5520 5537 5562 5570 5566 5560 5554
5447 5448 5444 5445 5457 5449 5428 5446 5472 5468 5437 5434 5436 5435 5439 5439 5433 5430 5428 5424 5423 5423 5425 5425 5424 5422 5420 5421 5425 5430 5434 5436 5438 5447 5460 5476 5490 5507 5516 5533 5547 5547 5540 5535
5436 5429 5413 5436 5441 5435 5419 5442 5436 5422 5424 5427 5428 5430 5435 5431 5427 5422 5416 5413 5413 5413 5414 5413 5412 5410 5411 5412 5415 5418 5422 5423 5426 5438 5446 5458 5475 5491 5498 5509 5518 5524 5525 5523
5437 5434 5425 5417 5413 5403 5401 5402 5400 5406 5411 5417 5426 5428 5428 5425 5419 5413 5408 5405 5402 5401 5400 5398 5398 5400 5402 5404 5406 5407 5412 5416 5423 5424 5427 5438 5453 5472 5480 5489 5496 5501 5505 5504
5433 5431 5414 5413 5403 5398 5394 5390 5391 5392 5396 5403 5407 5410 5419 5415 5412 5408 5403 5399 5393 5390 5388 5387 5388 5391 5393 5396 5400 5403 5407 5410 5415 5419 5414 5420 5430 5447 5463 5471 5475 5483 5484 5482
5405 5406 5388 5396 5388 5384 5381 5379 5379 5382 5384 5391 5394 5394 5395 5401 5401 5397 5391 5386 5383 5380 5377 5376 5378 5379 5383 5389 5394 5400 5401 5400 5402 5405 5403 5407 5413 5422 5435 5447 5451 5458 5456 5465
5391 5384 5390 5387 5373 5376 5369 5367 5368 5370 5372 5376 5381 5385 5386 5387 5388 5383 5377 5373 5372 5369 5367 5366 5367 5371 5375 5381 5386 5389 5389 5390 5395 5398 5395 5395 5399 5404 5409 5418 5425 5436 5437 5439